Location: Alpha Ridge Park
(39.3209°N, 76.9128°W)
Time: 06:42:25
(UTC-04:00)

Transit 2A - Pass Details

Date: 31 May 2019
Orbit: 593 x 966 km, 66.7° (Epoch: 17 June)

Event Time Altitude Azimuth Distance (km) Brightness Sun altitude
Rises 05:18:19 0° 173° (S) 3,524 9.2 -5.0°
Reaches altitude 10° 05:21:09 10° 161° (SSE) 2,628 8.6 -4.5°
Maximum altitude 05:26:12 27° 106° (ESE) 1,758 8.4 -3.7°
Drops below altitude 10° 05:31:22 10° 52° (NE) 2,708 10.9 -2.8°
Sets 05:34:20 0° 41° (NE) 3,653 11.2 -2.4°
